Santa Monica, CA

1:28 PM PDT on May 26, 2017 (GMT -0700)
Santa Monica Municipal

Weather History for KSMO - December, 2013

Change the Weather History Date:

Friday, December 6, 2013

  Actual Average Record
Temperature  
Mean Temperature 52 °F -  
Max Temperature 59 °F 68 °F 85 °F (1938)
Min Temperature 44 °F 48 °F 36 °F (1960)
Degree Days  
Heating Degree Days 14    
Growing Degree Days 2 (Base 50)    
Moisture  
Dew Point 36 °F    
Average Humidity 56    
Maximum Humidity 69    
Minimum Humidity 44    
Precipitation  
Precipitation 0.00 in - - ()
Sea Level Pressure  
Sea Level Pressure 30.13 in    
Wind  
Wind Speed 4 mph (NW)    
Max Wind Speed 10 mph    
Max Gust Speed -    
Visibility 10 miles    
Events      
Averages and records for this station are not official NWS values.
T = Trace of Precipitation, MM = Missing Value Source: NWS Daily Summary

Daily Weather History Graph

Daily Weather History Graph

Search for Another Location

Airport or City:

Trip Planner

Search our weather history database for the weather conditions in past years. The results will help you decide how hot, cold, wet, or windy it might be!

Date:

Astronomy

Dec. 06, 2013 Rise Set
Actual Time 6:45 AM PST 4:44 PM PST
Civil Twilight 6:18 AM PST 5:11 PM PST
Nautical Twilight 5:46 AM PST 5:43 PM PST
Astronomical Twilight 5:16 AM PST 6:13 PM PST
Moon 10:00 AM PST (12/6) 9:14 PM PST (12/6)
Length of Visible Light 10h 53m
Length of Day
9h 58m
Waxing Crescent, 20% of the Moon is Illuminated
Dec 6
Waxing Crescent
Dec 9
First Quarter
Dec 17
Full
Dec 25
Last Quarter
Jan 1
New

Hourly Weather History & Observations

Time (PST) Temp. Windchill Dew Point Humidity Pressure Visibility Wind Dir Wind Speed Gust Speed Precip Events Conditions
12:51 AM 46.9 °F - 28.0 °F 48% 30.10 in 10.0 mi North 3.5 mph - N/A   Clear
1:51 AM 46.0 °F 43.9 °F 28.9 °F 51% 30.11 in 10.0 mi North 4.6 mph - N/A   Clear
2:51 AM 44.1 °F 42.5 °F 30.0 °F 58% 30.11 in 10.0 mi North 3.5 mph - N/A   Clear
3:51 AM 44.1 °F 41.5 °F 30.9 °F 60% 30.11 in 10.0 mi North 4.6 mph - N/A   Clear
4:51 AM 46.0 °F 43.9 °F 33.1 °F 61% 30.11 in 10.0 mi NNE 4.6 mph - N/A   Scattered Clouds
5:51 AM 45.0 °F 43.5 °F 34.0 °F 65% 30.13 in 10.0 mi NNE 3.5 mph - N/A   Overcast
6:51 AM 46.0 °F 44.8 °F 35.1 °F 66% 30.14 in 10.0 mi NE 3.5 mph - N/A   Clear
7:51 AM 50.0 °F - 35.1 °F 57% 30.15 in 10.0 mi NE 3.5 mph - N/A   Scattered Clouds
8:51 AM 53.1 °F - 35.1 °F 50% 30.17 in 10.0 mi Variable 5.8 mph - N/A   Clear
9:51 AM 55.9 °F - 36.0 °F 47% 30.18 in 10.0 mi East 6.9 mph - N/A   Clear
10:51 AM 57.9 °F - 39.0 °F 49% 30.17 in 10.0 mi Variable 4.6 mph - N/A   Mostly Cloudy
11:51 AM 59.0 °F - 37.0 °F 44% 30.15 in 10.0 mi Variable 5.8 mph - N/A   Mostly Cloudy
12:51 PM 59.0 °F - 37.9 °F 46% 30.13 in 10.0 mi SW 6.9 mph - N/A   Scattered Clouds
1:51 PM 57.9 °F - 39.0 °F 49% 30.12 in 10.0 mi WSW 10.4 mph - N/A   Scattered Clouds
2:51 PM 57.9 °F - 39.9 °F 51% 30.11 in 10.0 mi WSW 8.1 mph - N/A   Scattered Clouds
3:51 PM 57.0 °F - 39.0 °F 51% 30.10 in 10.0 mi SW 6.9 mph - N/A   Clear
4:51 PM 55.0 °F - 39.0 °F 55% 30.11 in 10.0 mi SW 4.6 mph - N/A   Clear
5:51 PM 54.0 °F - 39.0 °F 57% 30.12 in 10.0 mi WSW 3.5 mph - N/A   Clear
6:51 PM 54.0 °F - 39.0 °F 57% 30.13 in 10.0 mi WSW 3.5 mph - N/A   Partly Cloudy
7:51 PM 52.0 °F - 39.9 °F 63% 30.12 in 10.0 mi Calm Calm - N/A   Partly Cloudy
8:51 PM 50.0 °F - 39.0 °F 66% 30.13 in 10.0 mi Calm Calm - N/A   Partly Cloudy
9:51 PM 48.9 °F - 39.0 °F 69% 30.13 in 10.0 mi Calm Calm - N/A   Mostly Cloudy
10:51 PM 50.0 °F - 39.0 °F 66% 30.14 in 10.0 mi Calm Calm - N/A   Mostly Cloudy
11:51 PM 48.9 °F - 39.0 °F 69% 30.12 in 10.0 mi Calm Calm - N/A   Partly Cloudy